Location: Peebles
(55.6412°N, 3.1714°W)
Time: 15:55:59
(UTC+00:00)

Meteor 1-22 Rocket - Visible Passes

Search period start: 24 January 2022 00:00
Search period end: 03 February 2022 00:00
Orbit: 789 x 939 km, 81.2° (Epoch: 23 January)

Date Brightness Start Highest point End Pass type
(mag) Time Alt. Az. Time Alt. Az. Time Alt. Az.
24 Jan 5.4 04:05:09 37° E 04:05:28 38° E 04:10:43 10° NNE visible
24 Jan 4.4 05:47:29 41° W 05:48:38 47° WNW 05:54:12 10° N visible
24 Jan 5.9 07:30:51 10° WNW 07:33:30 13° NW 07:36:12 10° NNW visible
25 Jan 5.5 03:57:46 37° E 03:57:46 37° E 04:02:40 10° NNE visible
25 Jan 4.4 05:40:05 46° W 05:40:33 47° WNW 05:46:09 10° N visible
25 Jan 5.9 07:22:44 10° WNW 07:25:25 13° NW 07:28:10 10° NNW visible
26 Jan 5.6 03:50:14 35° ENE 03:50:14 35° ENE 03:54:37 10° NNE visible
26 Jan 4.4 05:32:33 48° WNW 05:32:33 48° WNW 05:38:06 10° N visible
26 Jan 5.9 07:14:52 11° WNW 07:17:21 13° NW 07:20:09 10° NNW visible
27 Jan 5.7 03:42:37 33° ENE 03:42:37 33° ENE 03:46:33 10° NNE visible
27 Jan 4.5 05:24:56 47° NW 05:24:56 47° NW 05:30:03 10° N visible
27 Jan 5.9 07:07:15 12° WNW 07:09:16 14° NW 07:12:07 10° NNW visible
28 Jan 5.9 03:34:57 31° NE 03:34:57 31° NE 03:38:30 10° NNE visible
28 Jan 4.7 05:17:15 44° NW 05:17:15 44° NW 05:22:01 10° N visible
28 Jan 5.9 06:59:34 12° WNW 07:01:12 14° NW 07:04:06 10° NNW visible
29 Jan 6.0 03:27:13 28° NE 03:27:13 28° NE 03:30:28 10° NNE visible
29 Jan 4.8 05:09:31 42° NNW 05:09:31 42° NNW 05:13:58 10° N visible
29 Jan 5.9 06:51:49 13° WNW 06:53:08 14° NW 06:56:05 10° NNW visible
30 Jan 6.1 03:19:27 26° NE 03:19:27 26° NE 03:22:25 10° NNE visible
30 Jan 5.0 05:01:44 39° NNW 05:01:44 39° NNW 05:05:55 10° N visible
30 Jan 5.9 06:44:03 13° NW 06:45:03 14° NW 06:48:03 10° N visible
31 Jan 6.2 03:11:39 25° NE 03:11:39 25° NE 03:14:21 10° NNE visible
31 Jan 5.1 04:53:56 37° NNW 04:53:56 37° NNW 04:57:52 10° N visible
31 Jan 5.9 06:36:14 14° NW 06:37:00 14° NW 06:40:02 10° N visible
01 Feb 6.3 03:03:48 23° NE 03:03:48 23° NE 03:06:19 10° NNE visible
01 Feb 5.2 04:46:06 35° NNW 04:46:06 35° NNW 04:49:50 10° N visible
01 Feb 5.9 06:28:24 14° NW 06:28:55 14° NW 06:32:00 10° N visible
02 Feb 6.4 02:55:57 22° NE 02:55:57 22° NE 02:58:16 10° NNE visible
02 Feb 5.4 04:38:15 33° NNW 04:38:15 33° NNW 04:41:47 10° N visible
02 Feb 6.0 06:20:32 14° NW 06:20:51 14° NW 06:23:58 10° N visible
